| time (UTC) | temp F | wind direction | speed MPH | gust MPH | rain 1hr in | rain 24hr in | rain mn in | humidity % | barometer mb |
| 20260503020559 | 63 | 335 | 0.0 | 5.0 | 0.00 | 0.00 | 0.00 | 42 | 1017.9 |
| 20260503020056 | 64 | 327 | 0.0 | 1.0 | 0.00 | 0.00 | 0.00 | 44 | 1017.8 |
| 20260503015553 | 65 | 315 | 1.0 | 2.0 | 0.00 | 0.00 | 0.00 | 41 | 1018.1 |
| 20260503015050 | 66 | 328 | 2.0 | 2.0 | 0.00 | 0.00 | 0.00 | 42 | 1017.6 |
| 20260503014546 | 66 | 315 | 2.0 | 5.0 | 0.00 | 0.00 | 0.00 | 40 | 1017.9 |
| 20260503014044 | 67 | 323 | 1.0 | 2.0 | 0.00 | 0.00 | 0.00 | 37 | 1017.6 |
| 20260503013541 | 69 | 327 | 1.0 | 1.0 | 0.00 | 0.00 | 0.00 | 40 | 1017.7 |
| 20260503013039 | 70 | 310 | 0.0 | 2.0 | 0.00 | 0.00 | 0.00 | 37 | 1017.8 |
| 20260503012536 | 70 | 27 | 4.0 | 5.0 | 0.00 | 0.00 | 0.00 | 33 | 1017.7 |
| 20260503012032 | 72 | 325 | 0.0 | 0.0 | 0.00 | 0.00 | 0.00 | 38 | 1017.8 |
| 20260503011529 | 72 | 316 | 1.0 | 3.0 | 0.00 | 0.00 | 0.00 | 34 | 1017.9 |
| 20260503011026 | 73 | 329 | 0.0 | 5.0 | 0.00 | 0.00 | 0.00 | 30 | 1017.7 |
| 20260503010522 | 73 | 326 | 0.0 | 3.0 | 0.00 | 0.00 | 0.00 | 33 | 1017.6 |
| 20260503010020 | 72 | 325 | 0.0 | 2.0 | 0.00 | 0.00 | 0.00 | 34 | 1017.7 |
| 20260503005517 | 72 | 2 | 2.0 | 6.0 | 0.00 | 0.00 | 0.00 | 26 | 1017.8 |
| 20260503005014 | 72 | 326 | 1.0 | 2.0 | 0.00 | 0.00 | 0.00 | 32 | 1017.8 |
| 20260503004510 | 72 | 350 | 0.0 | 1.0 | 0.00 | 0.00 | 0.00 | 26 | 1017.9 |
| 20260503004009 | 72 | 353 | 2.0 | 6.0 | 0.00 | 0.00 | 0.00 | 26 | 1018.2 |
| 20260503003505 | 73 | 329 | 0.0 | 1.0 | 0.00 | 0.00 | 0.00 | 30 | 1018.1 |
| 20260503003002 | 73 | 331 | 1.0 | 3.0 | 0.00 | 0.00 | 0.00 | 30 | 1018.1 |
| 20260503002459 | 73 | 305 | 1.0 | 2.0 | 0.00 | 0.00 | 0.00 | 27 | 1017.9 |
| 20260503001955 | 72 | 317 | 1.0 | 1.0 | 0.00 | 0.00 | 0.00 | 34 | 1018.1 |
| 20260503001452 | 72 | 358 | 0.0 | 0.0 | 0.00 | 0.00 | 0.00 | 28 | 1018.1 |
| 20260503000949 | 73 | 333 | 2.0 | 3.0 | 0.00 | 0.00 | 0.00 | 24 | 1018.3 |
| 20260503000446 | 73 | 306 | 0.0 | 1.0 | 0.00 | 0.00 | 0.00 | 26 | 1018.1 |
| 20260502235944 | 73 | 323 | 2.0 | 5.0 | 0.00 | 0.00 | 0.00 | 24 | 1018.2 |
| 20260502235440 | 73 | 8 | 2.0 | 3.0 | 0.00 | 0.00 | 0.00 | 25 | 1018.1 |
| 20260502234938 | 74 | 326 | 0.0 | 5.0 | 0.00 | 0.00 | 0.00 | 25 | 1018.1 |
| 20260502234434 | 75 | 312 | 4.0 | 6.0 | 0.00 | 0.00 | 0.00 | 25 | 1018.2 |
| 20260502233932 | 74 | 325 | 1.0 | 2.0 | 0.00 | 0.00 | 0.00 | 24 | 1018.3 |
| 20260502233426 | 72 | 320 | 1.0 | 3.0 | 0.00 | 0.00 | 0.00 | 23 | 1018.4 |
| 20260502232924 | 69 | 321 | 1.0 | 3.0 | 0.00 | 0.00 | 0.00 | 30 | 1018.3 |
| 20260502232420 | 67 | 288 | 2.0 | 3.0 | 0.00 | 0.00 | 0.00 | 36 | 1018.4 |
| 20260502231918 | 67 | 319 | 0.0 | 1.0 | 0.00 | 0.00 | 0.00 | 39 | 1018.5 |
| 20260502231415 | 70 | 309 | 2.0 | 2.0 | 0.00 | 0.00 | 0.00 | 41 | 1018.6 |
| 20260502230913 | 70 | 332 | 0.0 | 0.0 | 0.00 | 0.00 | 0.00 | 26 | 1018.7 |
| 20260502230411 | 71 | 325 | 0.0 | 2.0 | 0.00 | 0.00 | 0.00 | 25 | 1018.7 |
| 20260502225908 | 72 | 313 | 5.0 | 8.0 | 0.00 | 0.00 | 0.00 | 24 | 1018.7 |
| 20260502225404 | 71 | 326 | 0.0 | 0.0 | 0.00 | 0.00 | 0.00 | 26 | 1018.7 |
| 20260502224901 | 72 | 331 | 0.0 | 2.0 | 0.00 | 0.00 | 0.00 | 27 | 1018.9 |
| 20260502224357 | 72 | 314 | 1.0 | 2.0 | 0.00 | 0.00 | 0.00 | 25 | 1018.8 |
| 20260502223855 | 74 | 325 | 0.0 | 2.0 | 0.00 | 0.00 | 0.00 | 25 | 1019.1 |
| 20260502223352 | 74 | 335 | 2.0 | 2.0 | 0.00 | 0.00 | 0.00 | 25 | 1019.1 |
| 20260502222850 | 74 | 325 | 1.0 | 6.0 | 0.00 | 0.00 | 0.00 | 24 | 1018.9 |
| 20260502222348 | 73 | 349 | 4.0 | 5.0 | 0.00 | 0.00 | 0.00 | 22 | 1019.3 |
| 20260502221843 | 74 | 345 | 1.0 | 6.0 | 0.00 | 0.00 | 0.00 | 25 | 1019.1 |
| 20260502221339 | 74 | 299 | 4.0 | 6.0 | 0.00 | 0.00 | 0.00 | 23 | 1019.2 |
| 20260502220837 | 74 | 359 | 2.0 | 5.0 | 0.00 | 0.00 | 0.00 | 24 | 1019.3 |
| 20260502220332 | 73 | 326 | 3.0 | 5.0 | 0.00 | 0.00 | 0.00 | 23 | 1019.4 |
| 20260502215829 | 74 | 306 | 1.0 | 11.0 | 0.00 | 0.00 | 0.00 | 25 | 1019.3 |
| 20260502215327 | 74 | 286 | 3.0 | 6.0 | 0.00 | 0.00 | 0.00 | 24 | 1019.5 |
| 20260502214824 | 74 | 0 | 5.0 | 7.0 | 0.00 | 0.00 | 0.00 | 24 | 1019.6 |
| 20260502214320 | 73 | 353 | 0.0 | 3.0 | 0.00 | 0.00 | 0.00 | 27 | 1019.6 |
| 20260502213817 | 73 | 17 | 5.0 | 6.0 | 0.00 | 0.00 | 0.00 | 23 | 1019.6 |
| 20260502213314 | 74 | 339 | 3.0 | 5.0 | 0.00 | 0.00 | 0.00 | 24 | 1019.7 |
| 20260502212814 | 74 | 345 | 6.0 | 8.0 | 0.00 | 0.00 | 0.00 | 24 | 1019.8 |
| 20260502212311 | 74 | 332 | 1.0 | 3.0 | 0.00 | 0.00 | 0.00 | 25 | 1020.1 |
| 20260502211808 | 74 | 348 | 3.0 | 8.0 | 0.00 | 0.00 | 0.00 | 25 | 1020.1 |
| 20260502211304 | 73 | 291 | 3.0 | 5.0 | 0.00 | 0.00 | 0.00 | 24 | 1020.1 |
| 20260502210801 | 73 | 30 | 2.0 | 6.0 | 0.00 | 0.00 | 0.00 | 23 | 1020.2 |
| 20260502210259 | 72 | 15 | 4.0 | 7.0 | 0.00 | 0.00 | 0.00 | 25 | 1019.9 |
| 20260502205756 | 72 | 7 | 2.0 | 9.0 | 0.00 | 0.00 | 0.00 | 26 | 1020.1 |
| 20260502205251 | 72 | 351 | 1.0 | 8.0 | 0.00 | 0.00 | 0.00 | 24 | 1020.3 |
| 20260502204749 | 73 | 351 | 4.0 | 5.0 | 0.00 | 0.00 | 0.00 | 24 | 1019.8 |
| 20260502204246 | 72 | 344 | 0.0 | 3.0 | 0.00 | 0.00 | 0.00 | 26 | 1020.2 |
| 20260502203744 | 74 | 286 | 0.0 | 5.0 | 0.00 | 0.00 | 0.00 | 24 | 1020.3 |
| 20260502203242 | 73 | 288 | 1.0 | 8.0 | 0.00 | 0.00 | 0.00 | 25 | 1020.5 |
| 20260502202735 | 73 | 345 | 3.0 | 7.0 | 0.00 | 0.00 | 0.00 | 24 | 1020.3 |
| 20260502202234 | 71 | 10 | 4.0 | 8.0 | 0.00 | 0.00 | 0.00 | 25 | 1020.3 |
| 20260502201731 | 72 | 344 | 1.0 | 8.0 | 0.00 | 0.00 | 0.00 | 25 | 1020.5 |
| 20260502201227 | 73 | 335 | 3.0 | 8.0 | 0.00 | 0.00 | 0.00 | 26 | 1020.4 |
| 20260502200723 | 72 | 337 | 5.0 | 9.0 | 0.00 | 0.00 | 0.00 | 25 | 1020.4 |
| 20260502200220 | 72 | 347 | 0.0 | 5.0 | 0.00 | 0.00 | 0.00 | 27 | 1020.3 |
| 20260502195719 | 72 | 334 | 2.0 | 6.0 | 0.00 | 0.00 | 0.00 | 25 | 1020.6 |
| 20260502195215 | 71 | 16 | 5.0 | 7.0 | 0.00 | 0.00 | 0.00 | 26 | 1020.5 |
| 20260502194711 | 71 | 352 | 3.0 | 8.0 | 0.00 | 0.00 | 0.00 | 25 | 1020.5 |
| 20260502194209 | 71 | 321 | 2.0 | 9.0 | 0.00 | 0.00 | 0.00 | 25 | 1020.6 |
| 20260502193704 | 72 | 354 | 3.0 | 5.0 | 0.00 | 0.00 | 0.00 | 25 | 1020.8 |
| 20260502193202 | 71 | 10 | 7.0 | 10.0 | 0.00 | 0.00 | 0.00 | 24 | 1020.7 |
| 20260502192656 | 71 | 3 | 2.0 | 6.0 | 0.00 | 0.00 | 0.00 | 26 | 1020.8 |
| 20260502192154 | 70 | 339 | 1.0 | 5.0 | 0.00 | 0.00 | 0.00 | 28 | 1020.9 |
| 20260502191651 | 69 | 338 | 5.0 | 7.0 | 0.00 | 0.00 | 0.00 | 30 | 1020.9 |
| 20260502191149 | 71 | 351 | 5.0 | 7.0 | 0.00 | 0.00 | 0.00 | 25 | 1021.1 |
| 20260502190646 | 69 | 359 | 2.0 | 3.0 | 0.00 | 0.00 | 0.00 | 29 | 1021.1 |
| 20260502190139 | 71 | 347 | 4.0 | 9.0 | 0.00 | 0.00 | 0.00 | 29 | 1021.2 |
| 20260502185638 | 71 | 325 | 3.0 | 6.0 | 0.00 | 0.00 | 0.00 | 32 | 1021.4 |
| 20260502185135 | 70 | 325 | 2.0 | 7.0 | 0.00 | 0.00 | 0.00 | 31 | 1021.1 |
| 20260502184631 | 70 | 324 | 3.0 | 3.0 | 0.00 | 0.00 | 0.00 | 31 | 1021.5 |
| 20260502184127 | 70 | 294 | 5.0 | 8.0 | 0.00 | 0.00 | 0.00 | 28 | 1021.4 |
| 20260502183623 | 70 | 344 | 0.0 | 8.0 | 0.00 | 0.00 | 0.00 | 30 | 1021.4 |
| 20260502183120 | 69 | 335 | 3.0 | 5.0 | 0.00 | 0.00 | 0.00 | 32 | 1021.7 |
| 20260502182615 | 68 | 301 | 4.0 | 7.0 | 0.00 | 0.00 | 0.00 | 34 | 1021.6 |
| 20260502182111 | 68 | 329 | 4.0 | 5.0 | 0.00 | 0.00 | 0.00 | 35 | 1021.8 |
| 20260502181609 | 67 | 336 | 1.0 | 3.0 | 0.00 | 0.00 | 0.00 | 39 | 1021.8 |
| 20260502181108 | 66 | 333 | 1.0 | 6.0 | 0.00 | 0.00 | 0.00 | 40 | 1021.8 |
| 20260502180604 | 66 | 313 | 3.0 | 8.0 | 0.00 | 0.00 | 0.00 | 38 | 1022.1 |
| 20260502170517 | 62 | 326 | 3.0 | 6.0 | 0.00 | 0.00 | 0.00 | 41 | 1022.5 |
| 20260502163956 | 59 | 332 | 0.0 | 3.0 | 0.00 | 0.00 | 0.00 | 44 | 1022.8 |
| 20260502163451 | 59 | 334 | 2.0 | 3.0 | 0.00 | 0.00 | 0.00 | 46 | 1022.7 |
| 20260502162949 | 58 | 337 | 1.0 | 2.0 | 0.00 | 0.00 | 0.00 | 49 | 1022.6 |
| 20260502162446 | 57 | 312 | 5.0 | 7.0 | 0.00 | 0.00 | 0.00 | 48 | 1022.7 |
| 20260502161943 | 57 | 332 | 0.0 | 5.0 | 0.00 | 0.00 | 0.00 | 49 | 1022.8 |
| 20260502161439 | 56 | 340 | 1.0 | 3.0 | 0.00 | 0.00 | 0.00 | 55 | 1023.1 |
| 20260502160937 | 55 | 324 | 3.0 | 3.0 | 0.00 | 0.00 | 0.00 | 52 | 1022.8 |
| 20260502160435 | 54 | 344 | 0.0 | 3.0 | 0.00 | 0.00 | 0.00 | 54 | 1023.2 |
| 20260502151918 | 49 | 352 | 0.0 | 0.0 | 0.00 | 0.00 | 0.00 | 63 | 1023.3 |
| 20260502151415 | 47 | 353 | 0.0 | 0.0 | 0.00 | 0.00 | 0.00 | 71 | 1023.3 |
| 20260502150912 | 47 | 356 | 0.0 | 1.0 | 0.00 | 0.00 | 0.00 | 68 | 1023.4 |
| 20260502150408 | 48 | 338 | 0.0 | 1.0 | 0.00 | 0.00 | 0.00 | 66 | 1023.4 |
| 20260502130255 | 30 | 342 | 0.0 | 0.0 | 0.00 | 0.00 | 0.00 | 99 | 1023.6 |
| 20260502123740 | 30 | 342 | 0.0 | 0.0 | 0.00 | 0.00 | 0.00 | 99 | 1023.6 |
| 20260502123237 | 29 | 342 | 0.0 | 0.0 | 0.00 | 0.00 | 0.00 | 99 | 1023.5 |
| 20260502122734 | 29 | 342 | 0.0 | 0.0 | 0.00 | 0.00 | 0.00 | 99 | 1023.4 |
| 20260502122230 | 29 | 342 | 0.0 | 0.0 | 0.00 | 0.00 | 0.00 | 99 | 1023.4 |
| 20260502121728 | 29 | 342 | 0.0 | 0.0 | 0.00 | 0.00 | 0.00 | 99 | 1023.4 |
| 20260502121226 | 29 | 342 | 0.0 | 0.0 | 0.00 | 0.00 | 0.00 | 99 | 1023.4 |
| 20260502120722 | 29 | 342 | 0.0 | 0.0 | 0.00 | 0.00 | 0.00 | 99 | 1023.4 |
| 20260502120219 | 29 | 342 | 0.0 | 0.0 | 0.00 | 0.00 | 0.00 | 99 | 1023.4 |
| 20260502115717 | 29 | 342 | 0.0 | 0.0 | 0.00 | 0.00 | 0.00 | 99 | 1023.4 |
| 20260502115213 | 30 | 342 | 0.0 | 0.0 | 0.00 | 0.00 | 0.00 | 99 | 1023.5 |
| 20260502114709 | 30 | 342 | 0.0 | 0.0 | 0.00 | 0.00 | 0.00 | 98 | 1023.4 |
| 20260502114207 | 30 | 342 | 0.0 | 0.0 | 0.00 | 0.00 | 0.00 | 98 | 1023.4 |
| 20260502113703 | 30 | 342 | 0.0 | 0.0 | 0.00 | 0.00 | 0.00 | 98 | 1023.5 |
| 20260502113201 | 30 | 341 | 0.0 | 0.0 | 0.00 | 0.00 | 0.00 | 98 | 1023.3 |
| 20260502112659 | 30 | 342 | 0.0 | 0.0 | 0.00 | 0.00 | 0.00 | 98 | 1023.4 |
| 20260502112156 | 30 | 342 | 0.0 | 0.0 | 0.00 | 0.00 | 0.00 | 98 | 1023.4 |
| 20260502111654 | 30 | 342 | 0.0 | 0.0 | 0.00 | 0.00 | 0.00 | 98 | 1023.4 |
| 20260502111151 | 30 | 342 | 0.0 | 0.0 | 0.00 | 0.00 | 0.00 | 98 | 1023.4 |
| 20260502110649 | 30 | 342 | 0.0 | 0.0 | 0.00 | 0.00 | 0.00 | 98 | 1023.4 |
| 20260502110146 | 30 | 341 | 0.0 | 0.0 | 0.00 | 0.00 | 0.00 | 98 | 1023.3 |
| 20260502105643 | 30 | 342 | 0.0 | 0.0 | 0.00 | 0.00 | 0.00 | 98 | 1023.4 |
| 20260502105140 | 30 | 342 | 0.0 | 0.0 | 0.00 | 0.00 | 0.00 | 98 | 1023.3 |
| 20260502104637 | 31 | 342 | 0.0 | 0.0 | 0.00 | 0.00 | 0.00 | 98 | 1023.3 |
| 20260502104135 | 31 | 342 | 0.0 | 0.0 | 0.00 | 0.00 | 0.00 | 98 | 1023.5 |
| 20260502103632 | 31 | 342 | 0.0 | 0.0 | 0.00 | 0.00 | 0.00 | 98 | 1023.3 |
| 20260502103130 | 31 | 342 | 0.0 | 0.0 | 0.00 | 0.00 | 0.00 | 97 | 1023.2 |
| 20260502102627 | 31 | 342 | 0.0 | 0.0 | 0.00 | 0.00 | 0.00 | 97 | 1023.1 |
| 20260502102123 | 31 | 342 | 0.0 | 0.0 | 0.00 | 0.00 | 0.00 | 97 | 1023.3 |
| 20260502101621 | 31 | 342 | 0.0 | 0.0 | 0.00 | 0.00 | 0.00 | 97 | 1023.2 |
| 20260502101120 | 32 | 341 | 0.0 | 0.0 | 0.00 | 0.00 | 0.00 | 97 | 1023.3 |
| 20260502100618 | 32 | 341 | 0.0 | 0.0 | 0.00 | 0.00 | 0.00 | 97 | 1023.0 |
| 20260502100116 | 32 | 342 | 0.0 | 0.0 | 0.00 | 0.00 | 0.00 | 97 | 1023.3 |
| 20260502091049 | 33 | 342 | 0.0 | 0.0 | 0.00 | 0.00 | 0.00 | 95 | 1023.0 |
| 20260502090546 | 33 | 342 | 0.0 | 0.0 | 0.00 | 0.00 | 0.00 | 95 | 1023.0 |
| 20260502071446 | 36 | 342 | 0.0 | 0.0 | 0.00 | 0.00 | 0.00 | 91 | 1023.2 |
| 20260502070944 | 36 | 342 | 0.0 | 0.0 | 0.00 | 0.00 | 0.00 | 90 | 1023.1 |
| 20260502070442 | 36 | 341 | 0.0 | 0.0 | 0.00 | 0.00 | 0.00 | 90 | 1023.0 |
| 20260502065940 | 37 | 341 | 0.0 | 0.0 | 0.00 | 0.00 | 0.00 | 90 | 1023.0 |
| 20260502065439 | 37 | 341 | 0.0 | 0.0 | 0.00 | 0.00 | 0.00 | 90 | 1023.0 |
| 20260502064936 | 37 | 342 | 0.0 | 0.0 | 0.00 | 0.00 | 0.00 | 89 | 1023.1 |
| 20260502064434 | 37 | 340 | 0.0 | 0.0 | 0.00 | 0.00 | 0.00 | 89 | 1022.7 |
| 20260502063931 | 38 | 340 | 0.0 | 0.0 | 0.00 | 0.00 | 0.00 | 88 | 1022.7 |
| 20260502063428 | 38 | 340 | 0.0 | 0.0 | 0.00 | 0.00 | 0.00 | 88 | 1022.8 |
| 20260502062926 | 38 | 340 | 0.0 | 0.0 | 0.00 | 0.00 | 0.00 | 87 | 1022.7 |
| 20260502062423 | 38 | 339 | 0.0 | 0.0 | 0.00 | 0.00 | 0.00 | 87 | 1022.7 |
| 20260502061922 | 38 | 342 | 0.0 | 0.0 | 0.00 | 0.00 | 0.00 | 88 | 1022.6 |
| 20260502061419 | 38 | 342 | 0.0 | 0.0 | 0.00 | 0.00 | 0.00 | 88 | 1022.7 |
| 20260502060915 | 38 | 342 | 0.0 | 0.0 | 0.00 | 0.00 | 0.00 | 88 | 1022.6 |
| 20260502060410 | 39 | 342 | 0.0 | 0.0 | 0.00 | 0.00 | 0.00 | 87 | 1022.5 |
| 20260502055908 | 39 | 342 | 0.0 | 0.0 | 0.00 | 0.00 | 0.00 | 87 | 1022.5 |
| 20260502055405 | 39 | 342 | 0.0 | 0.0 | 0.00 | 0.00 | 0.00 | 86 | 1022.4 |
| 20260502054900 | 39 | 342 | 0.0 | 0.0 | 0.00 | 0.00 | 0.00 | 86 | 1022.5 |
| 20260502054357 | 40 | 342 | 0.0 | 0.0 | 0.00 | 0.00 | 0.00 | 85 | 1022.5 |
| 20260502053855 | 40 | 342 | 0.0 | 0.0 | 0.00 | 0.00 | 0.00 | 85 | 1022.4 |
| 20260502053352 | 40 | 342 | 0.0 | 0.0 | 0.00 | 0.00 | 0.00 | 85 | 1022.6 |
| 20260502052849 | 41 | 342 | 0.0 | 0.0 | 0.00 | 0.00 | 0.00 | 85 | 1022.2 |
| 20260502052347 | 41 | 342 | 0.0 | 0.0 | 0.00 | 0.00 | 0.00 | 83 | 1022.3 |
| 20260502051844 | 41 | 342 | 0.0 | 0.0 | 0.00 | 0.00 | 0.00 | 85 | 1022.4 |
| 20260502051343 | 41 | 342 | 0.0 | 0.0 | 0.00 | 0.00 | 0.00 | 85 | 1022.3 |
| 20260502050838 | 41 | 342 | 0.0 | 0.0 | 0.00 | 0.00 | 0.00 | 83 | 1022.2 |
| 20260502050335 | 42 | 342 | 0.0 | 0.0 | 0.00 | 0.00 | 0.00 | 83 | 1022.3 |
| 20260502045832 | 42 | 342 | 0.0 | 0.0 | 0.00 | 0.00 | 0.00 | 83 | 1022.2 |
| 20260502045329 | 42 | 342 | 0.0 | 0.0 | 0.00 | 0.00 | 0.00 | 83 | 1022.3 |
| 20260502044826 | 42 | 342 | 0.0 | 0.0 | 0.00 | 0.00 | 0.00 | 81 | 1022.2 |
| 20260502044322 | 43 | 342 | 0.0 | 0.0 | 0.00 | 0.00 | 0.00 | 81 | 1022.2 |
| 20260502043819 | 43 | 342 | 0.0 | 0.0 | 0.00 | 0.00 | 0.00 | 82 | 1021.8 |
| 20260502043317 | 43 | 342 | 0.0 | 0.0 | 0.00 | 0.00 | 0.00 | 81 | 1022.1 |
| 20260502042816 | 43 | 342 | 0.0 | 0.0 | 0.00 | 0.00 | 0.00 | 81 | 1021.8 |
| 20260502042314 | 43 | 342 | 0.0 | 0.0 | 0.00 | 0.00 | 0.00 | 81 | 1022.1 |
| 20260502041811 | 43 | 342 | 0.0 | 0.0 | 0.00 | 0.00 | 0.00 | 80 | 1022.0 |
| 20260502041308 | 44 | 342 | 0.0 | 0.0 | 0.00 | 0.00 | 0.00 | 79 | 1022.1 |
| 20260502040805 | 44 | 342 | 0.0 | 0.0 | 0.00 | 0.00 | 0.00 | 79 | 1021.8 |
| 20260502040302 | 44 | 342 | 0.0 | 0.0 | 0.00 | 0.00 | 0.00 | 78 | 1021.7 |
| 20260502035758 | 45 | 342 | 0.0 | 0.0 | 0.00 | 0.00 | 0.00 | 78 | 1022.0 |
| 20260502035255 | 45 | 342 | 0.0 | 0.0 | 0.00 | 0.00 | 0.00 | 79 | 1021.7 |
| 20260502034752 | 45 | 343 | 0.0 | 0.0 | 0.00 | 0.00 | 0.00 | 76 | 1021.6 |
| 20260502034251 | 46 | 343 | 0.0 | 0.0 | 0.00 | 0.00 | 0.00 | 75 | 1021.6 |
| 20260502033749 | 46 | 341 | 0.0 | 0.0 | 0.00 | 0.00 | 0.00 | 73 | 1021.3 |
| 20260502033246 | 46 | 340 | 0.0 | 0.0 | 0.00 | 0.00 | 0.00 | 72 | 1021.5 |
| 20260502032742 | 47 | 336 | 0.0 | 0.0 | 0.00 | 0.00 | 0.00 | 72 | 1021.4 |
| 20260502032238 | 47 | 338 | 0.0 | 0.0 | 0.00 | 0.00 | 0.00 | 71 | 1021.3 |
| 20260502031737 | 48 | 338 | 0.0 | 0.0 | 0.00 | 0.00 | 0.00 | 69 | 1021.3 |
| 20260502031234 | 48 | 338 | 0.0 | 0.0 | 0.00 | 0.00 | 0.00 | 68 | 1021.3 |
| 20260502030733 | 49 | 327 | 0.0 | 0.0 | 0.00 | 0.00 | 0.00 | 66 | 1021.3 |
| 20260502030230 | 49 | 335 | 0.0 | 0.0 | 0.00 | 0.00 | 0.00 | 69 | 1021.1 |
| 20260502025727 | 50 | 328 | 0.0 | 1.0 | 0.00 | 0.00 | 0.00 | 65 | 1020.9 |
| 20260502025225 | 50 | 326 | 0.0 | 1.0 | 0.00 | 0.00 | 0.00 | 65 | 1020.7 |
| 20260502024723 | 51 | 334 | 0.0 | 0.0 | 0.00 | 0.00 | 0.00 | 64 | 1020.8 |
| 20260502024221 | 52 | 319 | 1.0 | 1.0 | 0.00 | 0.00 | 0.00 | 67 | 1020.8 |
| 20260502023719 | 52 | 323 | 0.0 | 0.0 | 0.00 | 0.00 | 0.00 | 65 | 1020.7 |
| 20260502023216 | 53 | 341 | 0.0 | 0.0 | 0.00 | 0.00 | 0.00 | 62 | 1020.7 |
| 20260502022713 | 53 | 337 | 0.0 | 0.0 | 0.00 | 0.00 | 0.00 | 63 | 1020.4 |
| 20260502022209 | 54 | 330 | 0.0 | 0.0 | 0.00 | 0.00 | 0.00 | 61 | 1020.5 |
| 20260502021707 | 55 | 329 | 0.0 | 0.0 | 0.00 | 0.00 | 0.00 | 63 | 1020.5 |
| 20260502021204 | 55 | 329 | 0.0 | 0.0 | 0.00 | 0.00 | 0.00 | 60 | 1020.4 |